Location: Launois
(49.6535°N, 4.5395°E)
Time: 04:33:35
(UTC+00:00)

Cosmos 841 Rocket - Pass Details

Date: 23 May 2024
Orbit: 744 x 770 km, 74.0° (Epoch: 19 June)

Event Time Altitude Azimuth Distance (km) Brightness Sun altitude
Rises 00:24:02 0° 339° (NNW) 3,231 7.7 -19.0°
Reaches altitude 10° 00:26:30 10° 345° (NNW) 2,305 6.9 -18.9°
Maximum altitude 00:31:34 48° 60° (ENE) 998 4.3 -18.7°
Enters shadow 00:36:28 11° 134° (SE) 2,248 5.6 -18.5°
